Location: Borea
(45.6167°N, 23.0167°E)
Time: 10:37:34
(UTC+00:00)

Cosmos 1943 Rocket - Pass Details

Date: 03 February 2023
Orbit: 811 x 844 km, 71.0° (Epoch: 20 March)

Event Time Altitude Azimuth Distance (km) Brightness Sun altitude
Rises 18:54:11 0° 338° (NNW) 3,414 5.8 -34.6°
Reaches altitude 10° 18:56:51 10° 347° (NNW) 2,475 4.9 -35.1°
Enters shadow 18:57:45 14° 352° (N) 2,179 4.5 -35.3°
